Annapolis Naval Academy, MD

9:55 PM EDT on October 16, 2017 (GMT -0400)
Annapolis Naval Academy

Weather History for KNAK - February, 2013

Change the Weather History Date:

Tuesday, February 26, 2013

  Actual Average (KBWI) Record (KBWI)
Temperature  
Mean Temperature 39 °F -  
Max Temperature 46 °F 44 °F 74 °F (1932)
Min Temperature 32 °F 29 °F 13 °F (1970)
Degree Days  
Heating Degree Days 26    
Moisture  
Dew Point 35 °F    
Average Humidity 82    
Maximum Humidity 92    
Minimum Humidity 79    
Precipitation  
Precipitation 0.76 in - - ()
Sea Level Pressure  
Sea Level Pressure 29.83 in    
Wind  
Wind Speed 11 mph (ENE)    
Max Wind Speed 23 mph    
Max Gust Speed 31 mph    
Visibility 6 miles    
Events Rain    
Averages and records for this station are not official NWS values.
T = Trace of Precipitation, MM = Missing Value Source: NWS Daily Summary

Daily Weather History Graph

Daily Weather History Graph

Search for Another Location

Airport or City:

Trip Planner

Search our weather history database for the weather conditions in past years. The results will help you decide how hot, cold, wet, or windy it might be!

Date:

Astronomy

Feb. 26, 2013 Rise Set
Actual Time 6:42 AM EST 5:55 PM EST
Civil Twilight 6:15 AM EST 6:22 PM EST
Nautical Twilight 5:44 AM EST 6:53 PM EST
Astronomical Twilight 5:13 AM EST 7:24 PM EST
Moon 7:08 PM EST (2/26) 6:44 AM EST (2/26)
Length of Visible Light 12h 07m
Length of Day
11h 13m
Full, 99% of the Moon is Illuminated
Feb 26
Full
Mar 4
Last Quarter
Mar 11
New
Mar 19
First Quarter
Mar 27
Full

Hourly Weather History & Observations

Time (EST) Temp. Windchill Dew Point Humidity Pressure Visibility Wind Dir Wind Speed Gust Speed Precip Events Conditions
2:54 AM 32.0 °F - 30.0 °F 92% 30.22 in 6.0 mi Calm Calm - N/A   Clear
8:54 AM 36.0 °F 31.1 °F 30.0 °F 79% 30.21 in 7.0 mi ENE 5.8 mph - N/A   Clear
12:54 PM 41.0 °F 38.0 °F 35.1 °F 79% 30.12 in 7.0 mi ENE 4.6 mph - 0.00 in Rain Light Rain
2:54 PM 43.0 °F 35.4 °F 37.0 °F 80% 30.01 in 8.0 mi East 16.1 mph 23.0 mph 0.01 in Rain Light Rain
3:54 PM 43.0 °F 34.8 °F 37.0 °F 80% 29.97 in 10.0 mi East 18.4 mph 28.8 mph 0.01 in Rain Light Rain
4:03 PM 43.0 °F 34.5 °F 37.0 °F 80% 29.94 in 10.0 mi East 19.6 mph 29.9 mph 0.01 in Rain Light Rain
4:54 PM 43.0 °F 34.5 °F 37.0 °F 80% 29.91 in 10.0 mi East 19.6 mph 26.5 mph 0.01 in   Overcast
5:54 PM 43.0 °F 35.1 °F 39.0 °F 86% 29.87 in 9.0 mi East 17.3 mph 31.1 mph 0.01 in Rain Light Rain
6:54 PM 43.0 °F 33.8 °F - N/A% 29.82 in 4.0 mi East 23.0 mph 31.1 mph 0.04 in Rain Light Rain
7:20 PM 43.0 °F 34.2 °F - N/A% 29.80 in 2.5 mi East 20.7 mph 27.6 mph 0.04 in Rain Rain
7:29 PM 43.0 °F 35.1 °F - N/A% 29.79 in 3.0 mi East 17.3 mph - 0.06 in Rain Rain
7:54 PM 43.0 °F 35.1 °F - N/A% 29.78 in 4.0 mi East 17.3 mph 23.0 mph 0.09 in Rain Light Rain
8:31 PM 43.0 °F 35.7 °F - N/A% 29.74 in 2.5 mi East 15.0 mph 23.0 mph 0.12 in Rain Heavy Rain
8:54 PM 44.1 °F 37.7 °F - N/A% 29.74 in 3.0 mi East 12.7 mph 23.0 mph 0.24 in Rain Rain
9:36 PM 44.1 °F 38.1 °F - N/A% 29.71 in 2.5 mi ENE 11.5 mph 19.6 mph 0.12 in Rain Rain
9:44 PM 45.0 °F 40.6 °F - N/A% 29.71 in 3.0 mi ENE 8.1 mph - 0.16 in Rain Heavy Rain
9:54 PM 45.0 °F 38.9 °F - N/A% 29.72 in 3.0 mi East 12.7 mph - 0.19 in Rain Rain
10:15 PM 45.0 °F 38.5 °F - N/A% 29.69 in 3.0 mi ENE 13.8 mph - 0.09 in Rain Light Rain
10:54 PM 46.0 °F 39.3 °F - N/A% 29.66 in 5.0 mi East 16.1 mph - 0.13 in Rain Light Rain
11:18 PM 46.0 °F 39.6 °F - N/A% 29.62 in 7.0 mi ENE 15.0 mph 23.0 mph 0.02 in Rain Light Rain
11:38 PM 46.0 °F 42.5 °F - N/A% 29.61 in 8.0 mi NE 6.9 mph - 0.02 in Rain Light Rain
11:54 PM 46.9 °F - - N/A% 29.62 in 8.0 mi NE 5.8 mph - 0.03 in Rain Light Rain